Time,TemperatureF,DewpointF,PressureIn,WindDirection,WindDirectionDegrees,WindSpeedMPH,WindSpeedGustMPH,Humidity,HourlyPrecipIn,Conditions,Clouds,dailyrainin,SoftwareType,DateUTC
2013-10-09 00:02:00,57.4,46.4,29.45,North,0,0.0,2.7,66,0.00,,---,0.00,cosweather0.1e,2013-10-09 07:02:00,
2013-10-09 00:07:00,57.4,46.4,29.45,NNE,33,0.0,4.0,66,0.00,,---,0.00,cosweather0.1e,2013-10-09 07:07:00,
2013-10-09 00:12:00,57.2,46.4,29.49,NE,34,0.0,3.1,67,0.00,,---,0.00,cosweather0.1e,2013-10-09 07:12:00,
2013-10-09 00:17:00,57.0,46.4,29.49,NE,54,0.0,0.0,67,0.00,,---,0.00,cosweather0.1e,2013-10-09 07:17:00,
2013-10-09 00:22:00,57.0,46.4,29.49,NE,36,0.0,3.6,67,0.00,,---,0.00,cosweather0.1e,2013-10-09 07:22:00,
2013-10-09 00:27:00,57.0,46.4,29.49,NE,36,0.0,4.0,67,0.00,,---,0.00,cosweather0.1e,2013-10-09 07:27:00,
2013-10-09 00:32:00,56.8,46.4,29.49,NE,35,0.0,3.1,68,0.00,,---,0.00,cosweather0.1e,2013-10-09 07:32:00,
2013-10-09 00:37:00,56.8,46.4,29.49,NE,42,0.0,0.0,68,0.00,,---,0.00,cosweather0.1e,2013-10-09 07:37:00,
2013-10-09 00:42:00,56.8,46.4,29.49,South,187,0.0,2.2,68,0.00,,---,0.00,cosweather0.1e,2013-10-09 07:42:00,
2013-10-09 00:47:00,57.0,46.4,29.49,South,187,0.0,0.0,68,0.00,,---,0.00,cosweather0.1e,2013-10-09 07:47:00,
2013-10-09 00:52:00,57.2,46.4,29.49,South,187,0.0,0.0,67,0.00,,---,0.00,cosweather0.1e,2013-10-09 07:52:00,
2013-10-09 00:57:00,57.4,46.4,29.45,SE,144,0.0,0.0,67,0.00,,---,0.00,cosweather0.1e,2013-10-09 07:57:00,
2013-10-09 01:02:00,57.2,46.4,29.45,East,91,0.0,0.0,66,0.00,,---,0.00,cosweather0.1e,2013-10-09 08:02:00,
2013-10-09 01:07:00,57.2,46.4,29.45,ENE,63,0.0,0.0,67,0.00,,---,0.00,cosweather0.1e,2013-10-09 08:07:00,
2013-10-09 01:12:00,57.2,46.4,29.45,ENE,71,0.0,0.0,67,0.00,,---,0.00,cosweather0.1e,2013-10-09 08:12:00,
2013-10-09 01:17:00,57.0,46.4,29.45,ENE,72,0.0,0.0,67,0.00,,---,0.00,cosweather0.1e,2013-10-09 08:17:00,
2013-10-09 01:22:00,57.0,46.4,29.45,ENE,70,0.0,0.0,67,0.00,,---,0.00,cosweather0.1e,2013-10-09 08:22:00,
2013-10-09 01:27:00,57.0,46.4,29.45,ENE,70,0.0,0.0,67,0.00,,---,0.00,cosweather0.1e,2013-10-09 08:27:00,
2013-10-09 01:32:00,56.8,46.4,29.45,ENE,63,0.0,0.0,67,0.00,,---,0.00,cosweather0.1e,2013-10-09 08:32:00,
2013-10-09 01:37:00,56.8,46.4,29.45,ENE,62,0.0,0.0,67,0.00,,---,0.00,cosweather0.1e,2013-10-09 08:37:00,
2013-10-09 01:42:00,57.0,46.4,29.45,ENE,62,0.0,0.0,67,0.00,,---,0.00,cosweather0.1e,2013-10-09 08:42:00,
2013-10-09 01:47:00,57.2,46.4,29.45,ENE,63,0.0,0.0,66,0.00,,---,0.00,cosweather0.1e,2013-10-09 08:47:00,
2013-10-09 01:52:00,57.0,46.4,29.45,ENE,62,0.0,0.0,66,0.00,,---,0.00,cosweather0.1e,2013-10-09 08:52:00,
2013-10-09 01:57:00,56.8,46.4,29.45,ENE,62,0.0,0.0,66,0.00,,---,0.00,cosweather0.1e,2013-10-09 08:57:00,
2013-10-09 02:02:00,56.7,46.4,29.45,ENE,70,0.0,0.0,66,0.00,,---,0.00,cosweather0.1e,2013-10-09 09:02:00,
2013-10-09 02:07:00,56.7,46.4,29.45,ENE,70,0.0,0.0,66,0.00,,---,0.00,cosweather0.1e,2013-10-09 09:07:00,
2013-10-09 02:12:00,56.5,46.4,29.45,ENE,70,0.0,0.0,66,0.00,,---,0.00,cosweather0.1e,2013-10-09 09:12:00,
2013-10-09 02:17:00,56.3,46.4,29.45,ENE,70,0.0,0.0,67,0.00,,---,0.00,cosweather0.1e,2013-10-09 09:17:00,
2013-10-09 02:22:00,56.1,44.6,29.45,ENE,63,0.0,0.0,67,0.00,,---,0.00,cosweather0.1e,2013-10-09 09:22:00,
2013-10-09 02:27:00,55.9,44.6,29.45,ENE,60,0.0,0.0,67,0.00,,---,0.00,cosweather0.1e,2013-10-09 09:27:00,
2013-10-09 02:32:00,55.9,44.6,29.45,ENE,60,0.0,2.7,67,0.00,,---,0.00,cosweather0.1e,2013-10-09 09:32:00,
2013-10-09 02:37:00,55.9,44.6,29.45,ENE,71,0.0,2.7,67,0.00,,---,0.00,cosweather0.1e,2013-10-09 09:37:00,
2013-10-09 02:42:00,55.9,44.6,29.41,ENE,72,0.0,2.2,68,0.00,,---,0.00,cosweather0.1e,2013-10-09 09:42:00,
2013-10-09 02:47:00,55.9,44.6,29.41,ENE,73,0.0,2.7,68,0.00,,---,0.00,cosweather0.1e,2013-10-09 09:47:00,
2013-10-09 02:52:00,55.9,44.6,29.41,ENE,74,0.0,2.2,68,0.00,,---,0.00,cosweather0.1e,2013-10-09 09:52:00,
2013-10-09 02:57:00,55.9,44.6,29.41,ENE,76,0.0,0.0,68,0.00,,---,0.00,cosweather0.1e,2013-10-09 09:57:00,
2013-10-09 03:02:00,56.1,44.6,29.41,East,85,0.0,0.0,68,0.00,,---,0.00,cosweather0.1e,2013-10-09 10:02:00,
2013-10-09 03:08:00,56.1,44.6,29.41,ESE,111,0.0,0.0,68,0.00,,---,0.00,cosweather0.1e,2013-10-09 10:08:00,
2013-10-09 03:13:00,56.1,44.6,29.41,ENE,69,0.0,0.0,68,0.00,,---,0.00,cosweather0.1e,2013-10-09 10:13:00,
2013-10-09 03:18:00,56.1,44.6,29.41,ENE,70,0.0,0.0,68,0.00,,---,0.00,cosweather0.1e,2013-10-09 10:18:00,
2013-10-09 03:23:00,56.1,44.6,29.41,ENE,70,0.0,0.0,68,0.00,,---,0.00,cosweather0.1e,2013-10-09 10:23:00,
2013-10-09 03:28:00,55.9,44.6,29.41,East,79,0.0,2.2,68,0.00,,---,0.00,cosweather0.1e,2013-10-09 10:28:00,
2013-10-09 03:33:00,55.9,44.6,29.41,East,83,0.0,0.0,69,0.00,,---,0.00,cosweather0.1e,2013-10-09 10:33:00,
2013-10-09 03:38:00,56.1,44.6,29.41,East,83,0.0,0.0,69,0.00,,---,0.00,cosweather0.1e,2013-10-09 10:38:00,
2013-10-09 03:43:00,56.1,44.6,29.37,East,84,0.0,0.0,69,0.00,,---,0.00,cosweather0.1e,2013-10-09 10:43:00,
2013-10-09 03:48:00,55.9,44.6,29.37,ENE,78,0.0,2.7,69,0.00,,---,0.00,cosweather0.1e,2013-10-09 10:48:00,
2013-10-09 03:53:00,55.9,44.6,29.37,ENE,77,0.0,0.0,69,0.00,,---,0.00,cosweather0.1e,2013-10-09 10:53:00,
2013-10-09 03:58:00,55.9,44.6,29.41,ENE,77,0.0,0.0,69,0.00,,---,0.00,cosweather0.1e,2013-10-09 10:58:00,
2013-10-09 04:03:00,56.1,44.6,29.41,ENE,77,0.0,0.0,69,0.00,,---,0.00,cosweather0.1e,2013-10-09 11:03:00,
2013-10-09 04:08:00,56.1,44.6,29.41,ENE,69,0.0,0.0,69,0.00,,---,0.00,cosweather0.1e,2013-10-09 11:08:00,
2013-10-09 04:13:00,55.8,44.6,29.41,NE,51,0.0,0.0,69,0.00,,---,0.00,cosweather0.1e,2013-10-09 11:13:00,
2013-10-09 04:18:00,55.6,44.6,29.41,ENE,60,0.0,0.0,69,0.00,,---,0.00,cosweather0.1e,2013-10-09 11:18:00,
2013-10-09 04:23:00,55.4,44.6,29.41,ENE,59,0.0,0.0,69,0.00,,---,0.00,cosweather0.1e,2013-10-09 11:23:00,
2013-10-09 04:28:00,55.4,44.6,29.41,ENE,59,0.0,0.0,69,0.00,,---,0.00,cosweather0.1e,2013-10-09 11:28:00,
2013-10-09 04:33:00,55.4,46.4,29.41,ENE,62,0.0,0.0,70,0.00,,---,0.00,cosweather0.1e,2013-10-09 11:33:00,
2013-10-09 04:38:00,55.4,46.4,29.41,ENE,62,0.0,0.0,70,0.00,,---,0.00,cosweather0.1e,2013-10-09 11:38:00,
2013-10-09 04:43:00,55.4,46.4,29.37,ENE,61,0.0,0.0,70,0.00,,---,0.00,cosweather0.1e,2013-10-09 11:43:00,
2013-10-09 04:48:00,55.2,46.4,29.37,ENE,60,0.0,0.0,71,0.00,,---,0.00,cosweather0.1e,2013-10-09 11:48:00,
2013-10-09 04:53:00,55.2,46.4,29.37,ENE,59,0.0,0.0,71,0.00,,---,0.00,cosweather0.1e,2013-10-09 11:53:00,
2013-10-09 04:58:00,55.2,46.4,29.37,ENE,73,0.0,2.2,71,0.00,,---,0.00,cosweather0.1e,2013-10-09 11:58:00,
2013-10-09 05:03:00,55.6,46.4,29.37,ENE,69,0.0,3.1,71,0.00,,---,0.00,cosweather0.1e,2013-10-09 12:03:00,
2013-10-09 05:06:00,55.6,46.4,29.37,ENE,71,0.0,0.0,71,0.00,,---,0.00,cosweather0.1e,2013-10-09 12:06:00,
2013-10-09 05:11:00,55.8,46.4,29.37,ENE,71,0.0,0.0,71,0.00,,---,0.00,cosweather0.1e,2013-10-09 12:11:00,
2013-10-09 05:16:00,55.9,46.4,29.37,ENE,71,0.0,0.0,71,0.00,,---,0.00,cosweather0.1e,2013-10-09 12:16:00,
2013-10-09 05:21:00,55.9,46.4,29.37,ENE,71,0.0,0.0,71,0.00,,---,0.00,cosweather0.1e,2013-10-09 12:21:00,
2013-10-09 05:26:00,55.9,46.4,29.37,ENE,67,0.0,0.0,71,0.00,,---,0.00,cosweather0.1e,2013-10-09 12:26:00,
2013-10-09 05:31:00,55.9,46.4,29.37,ENE,68,0.0,0.0,71,0.00,,---,0.00,cosweather0.1e,2013-10-09 12:31:00,
2013-10-09 05:36:00,55.9,46.4,29.37,ENE,70,0.0,0.0,71,0.00,,---,0.00,cosweather0.1e,2013-10-09 12:36:00,
2013-10-09 05:41:00,55.9,46.4,29.37,ENE,70,0.0,0.0,71,0.00,,---,0.00,cosweather0.1e,2013-10-09 12:41:00,
2013-10-09 05:46:00,56.1,46.4,29.37,ENE,69,0.0,0.0,71,0.00,,---,0.00,cosweather0.1e,2013-10-09 12:46:00,
2013-10-09 05:51:00,56.1,46.4,29.37,ENE,70,0.0,0.0,71,0.00,,---,0.00,cosweather0.1e,2013-10-09 12:51:00,
2013-10-09 05:56:00,56.3,48.2,29.37,ENE,70,0.0,0.0,71,0.00,,---,0.00,cosweather0.1e,2013-10-09 12:56:00,
2013-10-09 06:01:00,56.1,46.4,29.37,ENE,69,0.0,0.0,71,0.00,,---,0.00,cosweather0.1e,2013-10-09 13:01:00,
2013-10-09 06:06:00,56.3,48.2,29.37,ENE,70,0.0,0.0,71,0.00,,---,0.00,cosweather0.1e,2013-10-09 13:06:00,
2013-10-09 06:11:00,56.3,48.2,29.37,ENE,70,0.0,0.0,71,0.00,,---,0.00,cosweather0.1e,2013-10-09 13:11:00,
2013-10-09 06:16:00,56.3,48.2,29.37,ENE,69,0.0,0.0,71,0.00,,---,0.00,cosweather0.1e,2013-10-09 13:16:00,
2013-10-09 06:21:00,56.3,48.2,29.37,ENE,70,0.0,0.0,71,0.00,,---,0.00,cosweather0.1e,2013-10-09 13:21:00,
2013-10-09 06:26:00,56.3,48.2,29.37,ENE,73,0.0,0.0,71,0.00,,---,0.00,cosweather0.1e,2013-10-09 13:26:00,
2013-10-09 06:31:00,56.3,48.2,29.37,ENE,71,0.0,0.0,71,0.00,,---,0.00,cosweather0.1e,2013-10-09 13:31:00,
2013-10-09 06:36:00,56.3,48.2,29.37,ENE,78,0.0,2.2,72,0.00,,---,0.00,cosweather0.1e,2013-10-09 13:36:00,
2013-10-09 06:41:00,56.3,48.2,29.37,East,91,0.0,0.0,72,0.00,,---,0.00,cosweather0.1e,2013-10-09 13:41:00,
2013-10-09 06:46:00,56.3,48.2,29.37,East,96,0.0,0.0,72,0.00,,---,0.00,cosweather0.1e,2013-10-09 13:46:00,
2013-10-09 06:51:00,56.3,48.2,29.37,East,88,0.0,0.0,72,0.00,,---,0.00,cosweather0.1e,2013-10-09 13:51:00,
2013-10-09 06:56:00,56.3,48.2,29.37,East,92,0.0,0.0,72,0.00,,---,0.00,cosweather0.1e,2013-10-09 13:56:00,
2013-10-09 07:01:00,56.1,46.4,29.37,SE,135,0.0,0.0,71,0.00,,---,0.00,cosweather0.1e,2013-10-09 14:01:00,
2013-10-09 07:06:00,55.9,46.4,29.37,ESE,118,0.0,0.0,71,0.00,,---,0.00,cosweather0.1e,2013-10-09 14:06:00,
2013-10-09 07:11:00,55.9,46.4,29.37,SE,126,0.0,0.0,71,0.00,,---,0.00,cosweather0.1e,2013-10-09 14:11:00,
2013-10-09 07:16:00,55.9,46.4,29.37,SSE,156,0.0,0.0,71,0.00,,---,0.00,cosweather0.1e,2013-10-09 14:16:00,
2013-10-09 07:21:00,55.8,46.4,29.37,ESE,113,0.0,0.0,71,0.00,,---,0.00,cosweather0.1e,2013-10-09 14:21:00,
2013-10-09 07:26:00,55.9,46.4,29.37,ESE,112,0.0,0.0,71,0.00,,---,0.00,cosweather0.1e,2013-10-09 14:26:00,
2013-10-09 07:31:00,55.9,46.4,29.37,ESE,112,0.0,0.0,72,0.00,,---,0.00,cosweather0.1e,2013-10-09 14:31:00,
2013-10-09 07:36:00,55.9,46.4,29.37,SE,132,0.0,0.0,72,0.00,,---,0.00,cosweather0.1e,2013-10-09 14:36:00,
2013-10-09 07:41:00,56.1,46.4,29.37,SE,132,0.0,0.0,72,0.00,,---,0.00,cosweather0.1e,2013-10-09 14:41:00,
2013-10-09 07:46:00,56.1,46.4,29.37,SE,132,0.0,0.0,72,0.00,,---,0.00,cosweather0.1e,2013-10-09 14:46:00,
2013-10-09 07:51:00,56.3,48.2,29.37,SE,132,0.0,0.0,72,0.00,,---,0.00,cosweather0.1e,2013-10-09 14:51:00,
2013-10-09 07:56:00,56.3,48.2,29.37,SE,137,0.0,0.0,71,0.00,,---,0.00,cosweather0.1e,2013-10-09 14:56:00,
2013-10-09 08:01:00,56.3,48.2,29.37,SSE,154,0.0,0.0,71,0.00,,---,0.00,cosweather0.1e,2013-10-09 15:01:00,
2013-10-09 08:06:00,56.3,48.2,29.37,SSE,157,0.0,0.0,71,0.00,,---,0.00,cosweather0.1e,2013-10-09 15:06:00,
2013-10-09 08:11:00,56.3,48.2,29.37,SSE,156,0.0,0.0,71,0.00,,---,0.00,cosweather0.1e,2013-10-09 15:11:00,
2013-10-09 08:16:00,56.5,48.2,29.37,SSE,156,0.0,0.0,71,0.00,,---,0.00,cosweather0.1e,2013-10-09 15:16:00,
2013-10-09 08:21:00,56.5,48.2,29.37,SSE,156,0.0,0.0,71,0.00,,---,0.00,cosweather0.1e,2013-10-09 15:21:00,
2013-10-09 08:26:00,56.5,48.2,29.37,SSE,157,0.0,0.0,71,0.00,,---,0.00,cosweather0.1e,2013-10-09 15:26:00,
2013-10-09 08:31:00,56.7,48.2,29.37,SSE,157,0.0,0.0,71,0.00,,---,0.00,cosweather0.1e,2013-10-09 15:31:00,
2013-10-09 08:36:00,56.7,48.2,29.37,SSE,154,0.0,0.0,71,0.00,,---,0.00,cosweather0.1e,2013-10-09 15:36:00,
2013-10-09 08:41:00,56.8,48.2,29.37,SSE,156,0.0,0.0,71,0.00,,---,0.00,cosweather0.1e,2013-10-09 15:41:00,
2013-10-09 08:46:00,56.8,48.2,29.37,SSE,157,0.0,0.0,71,0.00,,---,0.00,cosweather0.1e,2013-10-09 15:46:00,
2013-10-09 08:52:00,57.0,48.2,29.37,SSE,147,0.0,0.0,71,0.00,,---,0.00,cosweather0.1e,2013-10-09 15:52:00,
2013-10-09 08:57:00,57.0,48.2,29.37,South,179,0.0,0.0,71,0.00,,---,0.00,cosweather0.1e,2013-10-09 15:57:00,
2013-10-09 09:02:00,57.2,48.2,29.37,SSW,206,0.0,0.0,70,0.00,,---,0.00,cosweather0.1e,2013-10-09 16:02:00,
2013-10-09 09:07:00,57.2,48.2,29.37,SSW,206,0.0,0.0,70,0.00,,---,0.00,cosweather0.1e,2013-10-09 16:07:00,
2013-10-09 09:12:00,57.2,48.2,29.37,SSW,211,0.0,0.0,70,0.00,,---,0.00,cosweather0.1e,2013-10-09 16:12:00,
2013-10-09 09:17:00,57.6,48.2,29.37,South,187,0.0,2.7,70,0.00,,---,0.00,cosweather0.1e,2013-10-09 16:17:00,
2013-10-09 09:22:00,57.6,48.2,29.37,SW,223,0.0,4.0,71,0.00,,---,0.00,cosweather0.1e,2013-10-09 16:22:00,
2013-10-09 09:27:00,57.6,48.2,29.37,WSW,244,0.0,3.6,70,0.00,,---,0.00,cosweather0.1e,2013-10-09 16:27:00,
2013-10-09 09:32:00,57.7,48.2,29.37,SW,224,0.0,4.0,70,0.00,,---,0.00,cosweather0.1e,2013-10-09 16:32:00,
2013-10-09 09:37:00,57.7,48.2,29.37,West,274,0.0,0.0,70,0.00,,---,0.00,cosweather0.1e,2013-10-09 16:37:00,
2013-10-09 09:42:00,57.9,48.2,29.37,WNW,299,0.0,2.7,70,0.00,,---,0.00,cosweather0.1e,2013-10-09 16:42:00,
2013-10-09 09:47:00,58.1,50.0,29.37,SW,214,0.0,0.0,70,0.00,,---,0.00,cosweather0.1e,2013-10-09 16:47:00,
2013-10-09 09:52:00,58.3,50.0,29.37,SSW,198,0.0,4.9,70,0.00,,---,0.00,cosweather0.1e,2013-10-09 16:52:00,
2013-10-09 09:57:00,58.3,48.2,29.41,SW,225,0.0,0.0,69,0.00,,---,0.00,cosweather0.1e,2013-10-09 16:57:00,
2013-10-09 10:02:00,58.5,48.2,29.41,WSW,239,0.0,3.6,69,0.00,,---,0.00,cosweather0.1e,2013-10-09 17:02:00,
2013-10-09 10:07:00,58.6,48.2,29.41,SW,226,0.0,5.4,69,0.00,,---,0.00,cosweather0.1e,2013-10-09 17:07:00,
2013-10-09 10:12:00,58.6,48.2,29.41,SW,215,0.0,0.0,69,0.00,,---,0.00,cosweather0.1e,2013-10-09 17:12:00,
2013-10-09 10:17:00,58.6,48.2,29.41,SW,225,0.0,3.6,68,0.00,,---,0.00,cosweather0.1e,2013-10-09 17:17:00,
2013-10-09 10:22:00,58.8,48.2,29.41,SSW,200,0.0,0.0,68,0.00,,---,0.00,cosweather0.1e,2013-10-09 17:22:00,
2013-10-09 10:27:00,58.8,48.2,29.41,SW,223,0.0,3.6,68,0.00,,---,0.00,cosweather0.1e,2013-10-09 17:27:00,
2013-10-09 10:32:00,59.2,48.2,29.41,ESE,121,0.0,2.7,68,0.00,,---,0.00,cosweather0.1e,2013-10-09 17:32:00,
2013-10-09 10:37:00,59.7,48.2,29.41,SSW,198,0.0,5.4,67,0.00,,---,0.00,cosweather0.1e,2013-10-09 17:37:00,
2013-10-09 10:42:00,60.1,50.0,29.41,South,190,0.0,4.0,66,0.00,,---,0.00,cosweather0.1e,2013-10-09 17:42:00,
2013-10-09 10:47:00,60.4,48.2,29.41,SE,133,0.0,3.1,64,0.00,,---,0.00,cosweather0.1e,2013-10-09 17:47:00,
2013-10-09 10:52:00,60.6,48.2,29.41,South,182,0.0,7.6,63,0.00,,---,0.00,cosweather0.1e,2013-10-09 17:52:00,
2013-10-09 10:57:00,61.0,46.4,29.41,SSW,211,0.0,3.6,61,0.00,,---,0.00,cosweather0.1e,2013-10-09 17:57:00,
2013-10-09 11:02:00,61.3,46.4,29.41,South,176,0.0,2.7,60,0.00,,---,0.00,cosweather0.1e,2013-10-09 18:02:00,
2013-10-09 11:07:00,61.3,46.4,29.41,South,180,0.0,5.8,59,0.00,,---,0.00,cosweather0.1e,2013-10-09 18:07:00,
2013-10-09 11:12:00,61.9,48.2,29.41,SW,219,0.0,2.7,58,0.00,,---,0.00,cosweather0.1e,2013-10-09 18:12:00,
2013-10-09 11:17:00,62.1,46.4,29.41,SW,219,0.0,6.3,57,0.00,,---,0.00,cosweather0.1e,2013-10-09 18:17:00,
2013-10-09 11:22:00,62.6,46.4,29.41,South,191,0.0,4.0,56,0.00,,---,0.00,cosweather0.1e,2013-10-09 18:22:00,
2013-10-09 11:27:00,62.4,46.4,29.41,SW,216,0.0,5.8,55,0.00,,---,0.00,cosweather0.1e,2013-10-09 18:27:00,
2013-10-09 11:32:00,62.6,46.4,29.41,SSW,204,0.0,6.3,55,0.00,,---,0.00,cosweather0.1e,2013-10-09 18:32:00,
2013-10-09 11:37:00,62.8,46.4,29.41,SSW,201,0.0,4.9,54,0.00,,---,0.00,cosweather0.1e,2013-10-09 18:37:00,
2013-10-09 11:42:00,63.1,46.4,29.41,SW,214,0.0,5.8,54,0.00,,---,0.00,cosweather0.1e,2013-10-09 18:42:00,
2013-10-09 11:47:00,63.9,46.4,29.41,SW,221,0.0,8.3,53,0.00,,---,0.00,cosweather0.1e,2013-10-09 18:47:00,
2013-10-09 11:52:00,64.4,44.6,29.41,SW,226,0.0,6.3,50,0.00,,---,0.00,cosweather0.1e,2013-10-09 18:52:00,
2013-10-09 11:57:00,64.4,44.6,29.41,SSW,197,0.0,7.6,48,0.00,,---,0.00,cosweather0.1e,2013-10-09 18:57:00,
2013-10-09 12:02:00,64.4,44.6,29.41,WSW,244,0.0,3.1,49,0.00,,---,0.00,cosweather0.1e,2013-10-09 19:02:00,
2013-10-09 12:07:00,64.8,44.6,29.41,South,177,0.0,3.1,49,0.00,,---,0.00,cosweather0.1e,2013-10-09 19:07:00,
2013-10-09 12:12:00,65.1,42.8,29.41,SSW,204,0.0,2.7,47,0.00,,---,0.00,cosweather0.1e,2013-10-09 19:12:00,
2013-10-09 12:17:00,65.3,44.6,29.41,SW,217,0.0,5.8,47,0.00,,---,0.00,cosweather0.1e,2013-10-09 19:17:00,
2013-10-09 12:22:00,65.7,44.6,29.41,South,183,0.0,3.6,46,0.00,,---,0.00,cosweather0.1e,2013-10-09 19:22:00,
2013-10-09 12:27:00,65.7,44.6,29.41,SSW,208,0.0,4.0,46,0.00,,---,0.00,cosweather0.1e,2013-10-09 19:27:00,
2013-10-09 12:32:00,66.2,44.6,29.41,SSE,168,0.0,4.0,45,0.00,,---,0.00,cosweather0.1e,2013-10-09 19:32:00,
2013-10-09 12:37:00,66.9,44.6,29.41,WNW,303,0.0,2.7,46,0.00,,---,0.00,cosweather0.1e,2013-10-09 19:37:00,
2013-10-09 12:42:00,67.3,46.4,29.41,SSW,209,0.0,5.4,45,0.00,,---,0.00,cosweather0.1e,2013-10-09 19:42:00,
2013-10-09 12:47:00,67.3,44.6,29.41,SSW,211,0.0,3.6,42,0.00,,---,0.00,cosweather0.1e,2013-10-09 19:47:00,
2013-10-09 12:52:00,67.5,44.6,29.41,WNW,300,0.0,5.8,43,0.00,,---,0.00,cosweather0.1e,2013-10-09 19:52:00,
2013-10-09 12:57:00,67.6,44.6,29.41,WSW,238,0.0,4.9,43,0.00,,---,0.00,cosweather0.1e,2013-10-09 19:57:00,
2013-10-09 13:02:00,67.6,44.6,29.41,SW,215,0.0,4.0,42,0.00,,---,0.00,cosweather0.1e,2013-10-09 20:02:00,
2013-10-09 13:07:00,68.0,42.8,29.41,SSW,208,0.0,6.3,41,0.00,,---,0.00,cosweather0.1e,2013-10-09 20:07:00,
2013-10-09 13:12:00,68.5,44.6,29.37,SSW,209,0.0,2.2,42,0.00,,---,0.00,cosweather0.1e,2013-10-09 20:12:00,
2013-10-09 13:17:00,68.9,46.4,29.37,South,187,0.0,3.1,42,0.00,,---,0.00,cosweather0.1e,2013-10-09 20:17:00,
2013-10-09 13:22:00,69.3,44.6,29.37,WNW,296,0.0,2.2,40,0.00,,---,0.00,cosweather0.1e,2013-10-09 20:22:00,
2013-10-09 13:27:00,69.8,44.6,29.37,WSW,249,0.0,3.1,40,0.00,,---,0.00,cosweather0.1e,2013-10-09 20:27:00,
2013-10-09 13:32:00,70.0,42.8,29.37,South,182,0.0,5.8,37,0.00,,---,0.00,cosweather0.1e,2013-10-09 20:32:00,
2013-10-09 13:37:00,70.2,42.8,29.37,South,173,0.0,5.4,37,0.00,,---,0.00,cosweather0.1e,2013-10-09 20:37:00,
2013-10-09 13:42:00,70.0,41.0,29.37,West,275,0.0,7.6,35,0.00,,---,0.00,cosweather0.1e,2013-10-09 20:42:00,
2013-10-09 13:47:00,70.0,41.0,29.37,WSW,253,0.0,7.2,35,0.00,,---,0.00,cosweather0.1e,2013-10-09 20:47:00,
2013-10-09 13:52:00,69.8,41.0,29.37,West,272,0.0,2.7,35,0.00,,---,0.00,cosweather0.1e,2013-10-09 20:52:00,
2013-10-09 13:57:00,70.0,41.0,29.37,West,271,0.0,3.6,35,0.00,,---,0.00,cosweather0.1e,2013-10-09 20:57:00,
2013-10-09 14:03:00,70.2,41.0,29.37,WSW,239,0.0,6.3,34,0.00,,---,0.00,cosweather0.1e,2013-10-09 21:03:00,
2013-10-09 14:08:00,70.0,41.0,29.37,NW,319,0.0,2.7,34,0.00,,---,0.00,cosweather0.1e,2013-10-09 21:08:00,
2013-10-09 14:13:00,70.0,39.2,29.37,NW,326,0.0,5.4,33,0.00,,---,0.00,cosweather0.1e,2013-10-09 21:13:00,
2013-10-09 14:18:00,70.0,39.2,29.37,West,266,0.0,4.9,33,0.00,,---,0.00,cosweather0.1e,2013-10-09 21:18:00,
2013-10-09 14:23:00,70.2,39.2,29.37,WSW,252,0.0,4.0,33,0.00,,---,0.00,cosweather0.1e,2013-10-09 21:23:00,
2013-10-09 14:28:00,70.5,39.2,29.37,North,353,0.0,3.1,33,0.00,,---,0.00,cosweather0.1e,2013-10-09 21:28:00,
2013-10-09 14:33:00,70.5,39.2,29.37,NNW,345,0.0,3.1,33,0.00,,---,0.00,cosweather0.1e,2013-10-09 21:33:00,
2013-10-09 14:38:00,70.7,41.0,29.37,WNW,299,0.0,4.9,33,0.00,,---,0.00,cosweather0.1e,2013-10-09 21:38:00,
2013-10-09 14:43:00,71.2,42.8,29.37,NW,313,0.0,0.0,34,0.00,,---,0.00,cosweather0.1e,2013-10-09 21:43:00,
2013-10-09 14:48:00,71.6,41.0,29.37,WSW,252,0.0,8.1,33,0.00,,---,0.00,cosweather0.1e,2013-10-09 21:48:00,
2013-10-09 14:53:00,71.4,41.0,29.37,NW,304,0.0,6.3,33,0.00,,---,0.00,cosweather0.1e,2013-10-09 21:53:00,
2013-10-09 14:58:00,71.2,41.0,29.37,SW,224,0.0,3.1,33,0.00,,---,0.00,cosweather0.1e,2013-10-09 21:58:00,
2013-10-09 15:03:00,70.9,41.0,29.37,West,265,0.0,5.8,33,0.00,,---,0.00,cosweather0.1e,2013-10-09 22:03:00,
2013-10-09 15:08:00,70.7,41.0,29.37,NW,320,0.0,3.1,33,0.00,,---,0.00,cosweather0.1e,2013-10-09 22:08:00,
2013-10-09 15:13:00,70.9,41.0,29.37,NW,317,0.0,3.6,33,0.00,,---,0.00,cosweather0.1e,2013-10-09 22:13:00,
2013-10-09 15:18:00,70.7,41.0,29.37,NW,309,0.0,7.2,33,0.00,,---,0.00,cosweather0.1e,2013-10-09 22:18:00,
2013-10-09 15:23:00,70.9,41.0,29.37,SW,224,0.0,4.9,33,0.00,,---,0.00,cosweather0.1e,2013-10-09 22:23:00,
2013-10-09 15:28:00,71.1,41.0,29.37,WNW,298,0.0,5.4,33,0.00,,---,0.00,cosweather0.1e,2013-10-09 22:28:00,
2013-10-09 15:33:00,71.1,41.0,29.37,NW,318,0.0,2.7,33,0.00,,---,0.00,cosweather0.1e,2013-10-09 22:33:00,
2013-10-09 15:38:00,70.7,41.0,29.37,SW,227,0.0,5.8,33,0.00,,---,0.00,cosweather0.1e,2013-10-09 22:38:00,
2013-10-09 15:43:00,70.5,39.2,29.37,West,274,0.0,2.2,33,0.00,,---,0.00,cosweather0.1e,2013-10-09 22:43:00,
2013-10-09 15:48:00,70.5,39.2,29.37,NW,311,0.0,4.9,33,0.00,,---,0.00,cosweather0.1e,2013-10-09 22:48:00,
2013-10-09 15:53:00,70.5,39.2,29.37,SSW,201,0.0,2.7,33,0.00,,---,0.00,cosweather0.1e,2013-10-09 22:53:00,
2013-10-09 15:58:00,70.5,39.2,29.37,South,174,0.0,3.6,33,0.00,,---,0.00,cosweather0.1e,2013-10-09 22:58:00,
2013-10-09 16:03:00,70.3,39.2,29.37,NW,312,0.0,6.3,33,0.00,,---,0.00,cosweather0.1e,2013-10-09 23:03:00,
2013-10-09 16:08:00,70.2,41.0,29.37,WNW,282,0.0,5.8,34,0.00,,---,0.00,cosweather0.1e,2013-10-09 23:08:00,
2013-10-09 16:13:00,69.8,41.0,29.37,NW,305,0.0,6.3,34,0.00,,---,0.00,cosweather0.1e,2013-10-09 23:13:00,
2013-10-09 16:18:00,69.6,41.0,29.37,West,263,0.0,4.0,34,0.00,,---,0.00,cosweather0.1e,2013-10-09 23:18:00,
2013-10-09 16:23:00,69.4,41.0,29.37,SW,225,0.0,5.4,35,0.00,,---,0.00,cosweather0.1e,2013-10-09 23:23:00,
2013-10-09 16:28:00,69.3,41.0,29.37,WNW,300,0.0,7.6,35,0.00,,---,0.00,cosweather0.1e,2013-10-09 23:28:00,
2013-10-09 16:33:00,69.3,41.0,29.37,NNW,339,0.0,6.3,35,0.00,,---,0.00,cosweather0.1e,2013-10-09 23:33:00,
2013-10-09 16:38:00,68.9,41.0,29.37,NW,309,0.0,6.3,35,0.00,,---,0.00,cosweather0.1e,2013-10-09 23:38:00,
2013-10-09 16:43:00,68.7,39.2,29.37,NW,312,0.0,8.1,35,0.00,,---,0.00,cosweather0.1e,2013-10-09 23:43:00,
2013-10-09 16:48:00,68.7,39.2,29.37,NW,318,0.0,4.5,35,0.00,,---,0.00,cosweather0.1e,2013-10-09 23:48:00,
2013-10-09 16:53:00,68.7,39.2,29.37,WSW,252,0.0,5.8,35,0.00,,---,0.00,cosweather0.1e,2013-10-09 23:53:00,
2013-10-09 16:58:00,68.7,39.2,29.41,WNW,296,0.0,5.8,35,0.00,,---,0.00,cosweather0.1e,2013-10-09 23:58:00,
2013-10-09 17:03:00,68.9,41.0,29.41,NNW,344,0.0,4.0,35,0.00,,---,0.00,cosweather0.1e,2013-10-10 00:03:00,
2013-10-09 17:08:00,68.7,39.2,29.41,NNW,327,0.0,5.8,35,0.00,,---,0.00,cosweather0.1e,2013-10-10 00:08:00,
2013-10-09 17:13:00,68.5,39.2,29.41,NW,307,0.0,3.6,34,0.00,,---,0.00,cosweather0.1e,2013-10-10 00:13:00,
2013-10-09 17:18:00,68.4,39.2,29.41,West,281,0.0,5.4,34,0.00,,---,0.00,cosweather0.1e,2013-10-10 00:18:00,
2013-10-09 17:23:00,68.2,39.2,29.41,NNW,334,0.0,5.8,34,0.00,,---,0.00,cosweather0.1e,2013-10-10 00:23:00,
2013-10-09 17:28:00,68.2,39.2,29.41,NNW,335,0.0,4.0,34,0.00,,---,0.00,cosweather0.1e,2013-10-10 00:28:00,
2013-10-09 17:33:00,68.0,39.2,29.41,WNW,290,0.0,2.7,34,0.00,,---,0.00,cosweather0.1e,2013-10-10 00:33:00,
2013-10-09 17:38:00,67.8,39.2,29.41,NW,307,0.0,5.8,34,0.00,,---,0.00,cosweather0.1e,2013-10-10 00:38:00,
2013-10-09 17:43:00,67.5,39.2,29.41,NW,326,0.0,3.6,34,0.00,,---,0.00,cosweather0.1e,2013-10-10 00:43:00,
2013-10-09 17:48:00,67.5,39.2,29.41,NW,319,0.0,6.3,34,0.00,,---,0.00,cosweather0.1e,2013-10-10 00:48:00,
2013-10-09 17:53:00,67.3,39.2,29.41,NNW,346,0.0,3.6,34,0.00,,---,0.00,cosweather0.1e,2013-10-10 00:53:00,
2013-10-09 17:58:00,67.1,39.2,29.41,NNW,338,0.0,3.1,35,0.00,,---,0.00,cosweather0.1e,2013-10-10 00:58:00,
2013-10-09 18:03:00,66.9,37.4,29.41,NNW,341,0.0,5.8,35,0.00,,---,0.00,cosweather0.1e,2013-10-10 01:03:00,
2013-10-09 18:08:00,66.9,37.4,29.41,NW,321,0.0,5.8,35,0.00,,---,0.00,cosweather0.1e,2013-10-10 01:08:00,
2013-10-09 18:13:00,66.7,37.4,29.41,NW,324,0.0,4.9,35,0.00,,---,0.00,cosweather0.1e,2013-10-10 01:13:00,
2013-10-09 18:18:00,66.6,39.2,29.41,NW,320,0.0,3.6,36,0.00,,---,0.00,cosweather0.1e,2013-10-10 01:18:00,
2013-10-09 18:23:00,66.6,39.2,29.41,North,353,0.0,3.6,36,0.00,,---,0.00,cosweather0.1e,2013-10-10 01:23:00,
2013-10-09 18:28:00,66.6,39.2,29.41,NW,322,0.0,2.7,36,0.00,,---,0.00,cosweather0.1e,2013-10-10 01:28:00,
2013-10-09 18:33:00,66.4,39.2,29.41,NW,324,0.0,3.1,36,0.00,,---,0.00,cosweather0.1e,2013-10-10 01:33:00,
2013-10-09 18:38:00,66.0,39.2,29.41,NW,318,0.0,2.2,38,0.00,,---,0.00,cosweather0.1e,2013-10-10 01:38:00,
2013-10-09 18:43:00,65.8,39.2,29.41,NNW,340,0.0,2.7,38,0.00,,---,0.00,cosweather0.1e,2013-10-10 01:43:00,
2013-10-09 18:48:00,65.8,41.0,29.41,NW,323,0.0,3.1,39,0.00,,---,0.00,cosweather0.1e,2013-10-10 01:48:00,
2013-10-09 18:54:00,65.7,41.0,29.41,North,353,0.0,0.0,39,0.00,,---,0.00,cosweather0.1e,2013-10-10 01:54:00,
2013-10-09 18:59:00,65.7,41.0,29.41,North,353,0.0,2.7,39,0.00,,---,0.00,cosweather0.1e,2013-10-10 01:59:00,
2013-10-09 19:04:00,65.5,39.2,29.41,North,353,0.0,5.4,38,0.00,,---,0.00,cosweather0.1e,2013-10-10 02:04:00,
2013-10-09 19:09:00,65.1,39.2,29.41,NE,44,0.0,2.7,38,0.00,,---,0.00,cosweather0.1e,2013-10-10 02:09:00,
2013-10-09 19:14:00,64.6,39.2,29.45,NE,49,0.0,3.6,38,0.00,,---,0.00,cosweather0.1e,2013-10-10 02:14:00,
2013-10-09 19:19:00,64.2,39.2,29.45,NE,38,0.0,5.4,38,0.00,,---,0.00,cosweather0.1e,2013-10-10 02:19:00,
2013-10-09 19:24:00,63.9,39.2,29.45,NE,42,0.0,4.0,38,0.00,,---,0.00,cosweather0.1e,2013-10-10 02:24:00,
2013-10-09 19:29:00,63.7,39.2,29.45,ENE,57,0.0,3.6,38,0.00,,---,0.00,cosweather0.1e,2013-10-10 02:29:00,
2013-10-09 19:34:00,63.5,39.2,29.45,NE,42,0.0,4.0,38,0.00,,---,0.00,cosweather0.1e,2013-10-10 02:34:00,
2013-10-09 19:39:00,63.3,37.4,29.45,NNE,22,0.0,3.1,38,0.00,,---,0.00,cosweather0.1e,2013-10-10 02:39:00,
2013-10-09 19:44:00,63.1,37.4,29.45,NNE,29,0.0,5.4,38,0.00,,---,0.00,cosweather0.1e,2013-10-10 02:44:00,
2013-10-09 19:49:00,63.0,37.4,29.45,NE,51,0.0,2.7,38,0.00,,---,0.00,cosweather0.1e,2013-10-10 02:49:00,
2013-10-09 19:54:00,63.0,37.4,29.45,NE,44,0.0,4.0,38,0.00,,---,0.00,cosweather0.1e,2013-10-10 02:54:00,
2013-10-09 19:59:00,62.8,37.4,29.45,NE,39,0.0,4.0,38,0.00,,---,0.00,cosweather0.1e,2013-10-10 02:59:00,
2013-10-09 20:04:00,63.0,37.4,29.45,NE,56,0.0,2.7,38,0.00,,---,0.00,cosweather0.1e,2013-10-10 03:04:00,
2013-10-09 20:09:00,63.0,37.4,29.45,NE,52,0.0,3.1,38,0.00,,---,0.00,cosweather0.1e,2013-10-10 03:09:00,
2013-10-09 20:14:00,63.0,37.4,29.45,NE,47,0.0,2.7,38,0.00,,---,0.00,cosweather0.1e,2013-10-10 03:14:00,
2013-10-09 20:19:00,62.8,37.4,29.45,NE,44,0.0,2.7,38,0.00,,---,0.00,cosweather0.1e,2013-10-10 03:19:00,
2013-10-09 20:24:00,62.8,37.4,29.45,NE,48,0.0,3.1,38,0.00,,---,0.00,cosweather0.1e,2013-10-10 03:24:00,
2013-10-09 20:29:00,62.6,37.4,29.45,NE,44,0.0,0.0,38,0.00,,---,0.00,cosweather0.1e,2013-10-10 03:29:00,
2013-10-09 20:34:00,63.0,37.4,29.45,NE,44,0.0,0.0,38,0.00,,---,0.00,cosweather0.1e,2013-10-10 03:34:00,
2013-10-09 20:39:00,63.0,37.4,29.45,NE,44,0.0,0.0,38,0.00,,---,0.00,cosweather0.1e,2013-10-10 03:39:00,
2013-10-09 20:44:00,63.1,37.4,29.45,NE,44,0.0,0.0,38,0.00,,---,0.00,cosweather0.1e,2013-10-10 03:44:00,
2013-10-09 20:49:00,63.0,37.4,29.45,NE,44,0.0,0.0,38,0.00,,---,0.00,cosweather0.1e,2013-10-10 03:49:00,
2013-10-09 20:54:00,63.0,37.4,29.45,NE,45,0.0,0.0,38,0.00,,---,0.00,cosweather0.1e,2013-10-10 03:54:00,
2013-10-09 20:59:00,63.1,37.4,29.45,NE,44,0.0,0.0,38,0.00,,---,0.00,cosweather0.1e,2013-10-10 03:59:00,
2013-10-09 21:01:00,63.1,37.4,29.45,NE,44,0.0,0.0,38,0.00,,---,0.00,cosweather0.1e,2013-10-10 04:01:00,
2013-10-09 21:02:00,63.0,37.4,29.45,NE,44,0.0,0.0,38,0.00,,---,0.00,cosweather0.1e,2013-10-10 04:02:00,
2013-10-09 21:07:00,63.0,37.4,29.45,NE,44,0.0,0.0,38,0.00,,---,0.00,cosweather0.1e,2013-10-10 04:07:00,
2013-10-09 21:12:00,63.0,37.4,29.45,NE,44,0.0,0.0,38,0.00,,---,0.00,cosweather0.1e,2013-10-10 04:12:00,
2013-10-09 21:17:00,62.8,37.4,29.45,NE,44,0.0,0.0,38,0.00,,---,0.00,cosweather0.1e,2013-10-10 04:17:00,
2013-10-09 21:22:00,62.8,37.4,29.45,NE,44,0.0,0.0,38,0.00,,---,0.00,cosweather0.1e,2013-10-10 04:22:00,
2013-10-09 21:27:00,62.4,37.4,29.49,NE,44,0.0,0.0,39,0.00,,---,0.00,cosweather0.1e,2013-10-10 04:27:00,
2013-10-09 21:33:00,62.2,37.4,29.49,NE,47,0.0,0.0,39,0.00,,---,0.00,cosweather0.1e,2013-10-10 04:33:00,
2013-10-09 21:38:00,62.1,37.4,29.49,NE,46,0.0,0.0,40,0.00,,---,0.00,cosweather0.1e,2013-10-10 04:38:00,
2013-10-09 21:43:00,62.2,37.4,29.49,NE,47,0.0,0.0,40,0.00,,---,0.00,cosweather0.1e,2013-10-10 04:43:00,
2013-10-09 21:48:00,62.2,37.4,29.49,NE,46,0.0,0.0,40,0.00,,---,0.00,cosweather0.1e,2013-10-10 04:48:00,
2013-10-09 21:53:00,62.2,37.4,29.49,NE,47,0.0,0.0,40,0.00,,---,0.00,cosweather0.1e,2013-10-10 04:53:00,
2013-10-09 21:58:00,62.1,39.2,29.49,NE,49,0.0,0.0,41,0.00,,---,0.00,cosweather0.1e,2013-10-10 04:58:00,
2013-10-09 22:03:00,61.9,39.2,29.49,NE,49,0.0,0.0,41,0.00,,---,0.00,cosweather0.1e,2013-10-10 05:03:00,
2013-10-09 22:08:00,61.9,39.2,29.49,ENE,75,0.0,3.1,42,0.00,,---,0.00,cosweather0.1e,2013-10-10 05:08:00,
2013-10-09 22:13:00,61.7,41.0,29.49,ENE,75,0.0,2.7,44,0.00,,---,0.00,cosweather0.1e,2013-10-10 05:13:00,
2013-10-09 22:18:00,61.7,41.0,29.49,ENE,75,0.0,0.0,44,0.00,,---,0.00,cosweather0.1e,2013-10-10 05:18:00,
2013-10-09 22:23:00,61.9,41.0,29.49,ENE,75,0.0,0.0,45,0.00,,---,0.00,cosweather0.1e,2013-10-10 05:23:00,
2013-10-09 22:28:00,61.9,41.0,29.49,ENE,75,0.0,0.0,45,0.00,,---,0.00,cosweather0.1e,2013-10-10 05:28:00,
2013-10-09 22:33:00,61.5,39.2,29.49,ENE,75,0.0,0.0,45,0.00,,---,0.00,cosweather0.1e,2013-10-10 05:33:00,
2013-10-09 22:38:00,61.5,39.2,29.49,ENE,75,0.0,0.0,45,0.00,,---,0.00,cosweather0.1e,2013-10-10 05:38:00,
2013-10-09 22:43:00,61.3,39.2,29.49,ENE,75,0.0,0.0,45,0.00,,---,0.00,cosweather0.1e,2013-10-10 05:43:00,
2013-10-09 22:48:00,61.2,39.2,29.49,ENE,74,0.0,0.0,46,0.00,,---,0.00,cosweather0.1e,2013-10-10 05:48:00,
2013-10-09 22:53:00,61.0,39.2,29.49,ENE,74,0.0,0.0,46,0.00,,---,0.00,cosweather0.1e,2013-10-10 05:53:00,
2013-10-09 22:58:00,60.8,39.2,29.49,ENE,73,0.0,0.0,46,0.00,,---,0.00,cosweather0.1e,2013-10-10 05:58:00,
2013-10-09 23:03:00,60.6,39.2,29.49,ENE,59,0.0,0.0,46,0.00,,---,0.00,cosweather0.1e,2013-10-10 06:03:00,
2013-10-09 23:08:00,60.6,39.2,29.49,ENE,60,0.0,0.0,46,0.00,,---,0.00,cosweather0.1e,2013-10-10 06:08:00,
2013-10-09 23:13:00,60.6,41.0,29.49,North,2,0.0,0.0,47,0.00,,---,0.00,cosweather0.1e,2013-10-10 06:13:00,
2013-10-09 23:18:00,60.8,39.2,29.49,North,6,0.0,0.0,46,0.00,,---,0.00,cosweather0.1e,2013-10-10 06:18:00,
2013-10-09 23:23:00,60.8,39.2,29.49,North,357,0.0,0.0,46,0.00,,---,0.00,cosweather0.1e,2013-10-10 06:23:00,
2013-10-09 23:28:00,60.8,39.2,29.49,North,357,0.0,0.0,46,0.00,,---,0.00,cosweather0.1e,2013-10-10 06:28:00,
2013-10-09 23:33:00,60.8,39.2,29.49,North,357,0.0,0.0,46,0.00,,---,0.00,cosweather0.1e,2013-10-10 06:33:00,
2013-10-09 23:38:00,60.8,39.2,29.49,North,357,0.0,0.0,46,0.00,,---,0.00,cosweather0.1e,2013-10-10 06:38:00,
2013-10-09 23:43:00,60.6,41.0,29.53,North,357,0.0,0.0,47,0.00,,---,0.00,cosweather0.1e,2013-10-10 06:43:00,
2013-10-09 23:48:00,60.4,41.0,29.53,NNE,14,0.0,0.0,47,0.00,,---,0.00,cosweather0.1e,2013-10-10 06:48:00,
2013-10-09 23:53:00,60.3,41.0,29.53,North,9,0.0,0.0,47,0.00,,---,0.00,cosweather0.1e,2013-10-10 06:53:00,
2013-10-09 23:58:00,59.7,39.2,29.53,NE,43,0.0,3.6,49,0.00,,---,0.00,cosweather0.1e,2013-10-10 06:58:00,